Location: Aciu?a
(46.2833°N, 22.4500°E)
Time: 13:31:36
(UTC+00:00)

MOS 1-B Rocket - Pass Details

Date: 25 October 2021
Orbit: 890 x 1605 km, 99.0° (Epoch: 06 December)

Event Time Altitude Azimuth Distance (km) Brightness Sun altitude
Rises 17:17:20 0° 12° (NNE) 4,012 7.1 -19.8°
Reaches altitude 10° 17:20:06 10° 10° (N) 2,951 6.4 -20.2°
Maximum altitude 17:26:32 64° 291° (WNW) 1,089 4.4 -21.3°
Drops below altitude 10° 17:32:12 10° 211° (SSW) 2,608 6.5 -22.3°
Sets 17:34:31 0° 208° (SSW) 3,513 7.2 -22.7°
